Theta_e
350 350 353 355 354 353 353 353 353 353 352 352 352 351 351 351 350 351 352 352 353 353 352 352 352 352 352 351 351 352 351 350 350 349 349 349 349 348 348 347 347 347 346 346 345 346 344 345 345 346 347 346 346 345 344 342 341 342 342 340 340 340 339 339 339 338 338 338 341 343 343 343 343 342 342 342 343 343 342 343 342 340 342 342 345
348 351 352 353 353 353 352 353 352 352 352 352 352 351 351 351 350 350 351 351 351 351 351 352 351 351 352 352 351 351 350 350 350 350 349 348 348 347 346 348 347 346 345 345 345 346 346 347 347 347 346 345 345 344 342 344 344 343 343 343 342 341 339 338 337 337 338 338 340 342 342 342 342 343 342 343 343 343 342 342 343 340 341 344 344
351 351 352 352 353 353 352 353 353 352 352 352 352 351 350 349 349 350 351 351 351 351 351 351 351 350 350 351 350 350 350 350 350 349 348 348 348 348 348 347 346 346 347 348 348 348 348 348 347 345 346 347 345 345 344 344 344 343 343 343 342 341 340 339 339 339 339 340 340 339 341 342 342 342 343 343 342 343 342 342 342 341 341 343 343
350 351 352 352 353 353 352 352 353 353 352 352 351 351 351 350 350 350 350 350 351 351 351 351 351 350 351 351 351 351 351 351 350 350 349 349 349 349 349 348 349 348 349 347 348 349 349 349 350 349 347 347 347 346 345 344 344 343 343 343 341 340 339 339 337 338 340 340 339 337 337 331 338 341 342 341 341 341 340 341 341 342 342 342 343
350 351 351 351 351 352 352 352 352 352 352 351 351 351 350 350 350 349 349 350 351 351 351 351 351 350 350 351 351 351 352 352 352 352 350 350 350 350 348 347 348 349 348 347 348 349 349 349 348 348 349 349 348 347 346 345 344 344 344 344 343 341 340 339 338 338 340 340 339 336 331 330 332 339 340 340 340 339 339 339 339 340 340 341 342
350 350 350 350 349 350 352 352 352 351 351 351 351 350 350 351 351 350 349 349 350 350 351 351 351 351 350 350 350 351 351 351 351 351 350 350 349 347 347 347 346 346 347 348 347 348 349 350 349 349 348 348 348 347 347 345 344 344 344 345 345 341 340 339 338 339 340 339 337 333 330 332 332 334 338 339 338 338 338 337 338 338 338 340 340
350 350 349 349 349 351 352 352 352 351 351 351 350 351 351 350 349 350 350 349 348 350 350 350 350 350 350 350 350 349 350 351 351 350 350 350 349 348 347 346 347 348 347 346 347 348 349 350 349 350 349 348 348 347 346 346 345 345 345 345 344 342 341 339 339 339 338 334 330 329 330 330 332 332 336 336 337 336 337 337 337 340 341 340 340
351 350 349 349 349 351 352 352 352 351 351 351 350 351 351 351 350 351 351 350 348 348 349 350 349 350 350 349 350 350 350 350 350 350 349 349 349 348 348 347 347 347 345 347 348 348 348 349 349 349 348 347 347 347 345 345 345 344 343 344 344 341 340 339 339 338 336 331 329 329 329 330 333 334 337 337 337 337 336 336 339 338 339 339 339
349 349 349 348 349 352 352 351 351 351 351 350 349 350 351 351 351 351 351 350 349 349 350 351 350 350 349 349 350 350 351 351 351 350 349 348 350 349 348 347 346 345 345 346 346 346 346 348 348 348 348 346 346 345 344 344 344 344 344 345 344 341 340 340 339 337 333 331 329 329 328 328 329 331 334 335 336 336 336 337 338 338 338 338 336
349 348 348 347 349 352 351 350 350 351 351 350 349 349 351 351 351 351 350 350 350 350 350 350 349 349 348 349 350 350 350 350 348 348 348 351 351 349 348 347 346 345 345 345 345 345 347 347 347 347 346 345 345 345 345 345 345 345 345 345 345 341 340 339 338 337 332 332 330 332 336 335 330 331 334 336 336 335 334 334 338 335 336 336 336
348 348 347 348 349 351 350 351 351 351 350 349 349 350 351 350 350 349 349 349 349 349 349 349 348 348 348 349 350 351 351 351 351 351 353 352 352 349 347 348 347 346 345 345 345 346 346 346 345 345 345 345 346 345 345 345 345 345 345 346 344 340 339 338 336 333 333 332 330 333 338 337 332 333 337 337 337 336 335 334 334 334 334 334 335
347 347 347 348 352 351 350 351 350 350 349 349 349 350 350 348 348 349 348 348 349 349 349 349 349 349 348 349 350 351 351 352 352 352 352 352 351 350 349 348 347 346 346 345 345 345 345 345 345 345 345 345 346 345 345 345 344 345 346 346 342 340 339 338 333 333 333 333 334 331 331 332 334 335 337 337 336 335 335 335 335 335 336 335 335
347 347 347 348 349 351 350 350 351 350 350 351 350 350 348 348 348 348 348 349 350 349 350 349 350 349 349 349 350 350 350 351 351 351 351 351 350 349 349 348 347 347 346 345 345 345 345 345 345 345 345 345 345 345 345 345 343 343 343 342 341 340 340 339 334 335 334 333 332 330 329 331 333 335 336 335 334 336 337 337 337 336 336 336 335
346 347 347 347 348 352 350 350 350 351 351 351 350 349 349 349 349 349 349 349 349 350 350 349 350 350 350 350 349 349 349 350 351 351 351 350 349 349 348 348 347 347 346 346 346 346 346 346 345 345 345 345 345 345 345 346 343 342 342 341 341 341 341 340 338 336 335 333 334 330 330 335 333 335 335 336 336 335 334 333 333 333 332 332 333
346 347 347 347 349 349 352 351 351 350 350 349 349 349 349 349 349 349 349 349 350 350 350 349 349 349 349 348 349 349 349 349 350 350 350 350 350 349 349 348 347 346 345 345 345 345 346 345 345 344 344 344 344 345 345 345 344 342 342 342 342 341 341 337 336 335 334 334 334 329 329 332 335 334 336 335 335 334 333 334 333 333 334 333 332
348 347 348 347 347 348 349 351 350 350 350 350 349 350 350 349 349 349 349 349 349 349 350 349 349 348 348 349 348 348 348 349 349 349 349 349 348 348 347 347 346 346 345 345 344 344 345 345 345 345 344 344 344 345 345 345 345 342 343 342 342 341 340 338 335 334 333 332 333 335 332 333 334 335 335 335 334 335 335 334 333 333 333 333 332
348 348 347 346 346 346 347 348 349 351 350 350 349 349 349 349 349 349 349 349 349 349 349 349 349 348 348 348 348 348 348 348 348 348 348 347 347 347 347 347 347 347 345 345 344 344 345 345 344 344 344 344 344 344 344 345 345 343 342 342 341 341 341 338 333 332 333 335 335 332 333 334 335 336 336 336 335 334 334 333 333 333 333 332 332
348 347 346 347 346 345 346 347 348 347 348 349 350 349 349 349 349 349 349 349 349 349 348 349 348 348 348 348 348 348 348 348 348 348 347 347 347 347 347 347 346 345 345 345 344 344 344 344 344 344 344 344 344 344 344 346 345 343 342 342 341 341 340 337 332 333 335 337 332 336 335 335 334 334 335 335 334 334 334 333 333 333 332 332 331
346 347 347 346 345 344 345 345 346 346 346 346 346 348 349 349 349 349 349 349 348 348 348 348 347 347 348 348 348 348 348 348 348 348 347 347 347 347 346 346 345 344 344 344 344 344 344 344 344 344 343 343 343 344 345 345 344 343 342 342 341 341 340 336 333 333 336 334 333 333 335 336 336 334 335 335 334 334 334 334 333 332 332 332 332
345 345 345 345 345 344 344 344 344 344 344 344 345 346 348 349 349 349 349 349 349 348 348 348 348 347 347 346 346 346 346 346 348 346 348 347 347 345 346 345 344 344 344 343 343 343 343 343 343 342 343 342 342 341 343 345 345 343 342 342 341 341 334 332 332 332 332 335 335 335 336 334 334 334 335 335 334 335 334 334 333 334 332 332 332
343 344 344 344 344 345 345 344 344 344 344 344 344 345 347 349 349 349 349 349 349 349 348 348 346 346 345 345 345 343 343 343 345 344 346 345 346 346 346 345 344 344 344 343 343 343 342 343 342 342 342 341 340 341 343 344 344 343 342 342 341 332 331 331 332 334 334 337 337 334 339 339 337 336 336 336 335 334 334 333 333 333 333 333 333
340 340 343 344 344 344 345 344 344 343 343 342 344 345 345 347 344 345 346 347 347 346 345 344 346 342 344 344 341 344 342 342 344 347 344 345 344 346 345 345 344 344 344 343 342 342 342 342 342 342 341 340 339 331 334 344 344 343 342 341 332 330 331 331 332 333 335 334 336 339 338 339 338 337 337 338 336 335 334 334 333 333 334 334 333
338 340 341 344 344 344 344 344 344 343 341 341 342 344 343 344 344 344 345 345 345 345 343 344 341 341 341 341 342 339 341 342 343 345 344 344 345 345 345 345 344 344 343 342 341 341 341 341 341 341 339 336 330 330 330 332 340 344 342 332 330 330 331 331 332 333 332 335 334 340 339 338 338 338 337 338 339 337 336 335 335 334 334 334 332
338 340 341 343 344 343 343 344 344 342 339 339 341 343 342 344 343 342 341 341 342 342 340 340 341 340 340 339 339 339 339 340 345 347 346 343 343 344 344 344 343 342 342 341 341 341 341 340 339 337 332 329 328 329 329 331 333 332 330 330 330 330 331 332 332 331 333 338 333 340 340 340 337 337 338 339 339 338 337 336 335 334 333 333 333
337 340 341 341 343 343 343 343 343 340 338 341 342 341 342 341 340 340 340 340 339 339 339 339 340 339 339 339 339 338 338 338 339 339 338 338 337 337 338 337 337 337 338 333 331 330 329 326 327 329 325 326 327 328 330 331 331 330 330 330 331 331 332 332 332 332 333 335 336 342 342 341 338 338 340 341 340 339 337 336 335 334 333 331 332
338 338 339 341 342 342 342 343 342 339 339 340 340 342 341 339 339 340 340 339 338 338 338 338 337 337 338 339 339 337 336 336 337 337 337 336 335 335 334 334 334 333 335 330 329 328 327 327 327 327 327 326 326 327 332 332 330 330 330 330 331 331 331 332 333 333 333 334 340 341 342 341 341 340 341 341 341 338 337 336 335 334 333 333 332
336 337 340 341 342 341 341 341 339 338 338 339 340 340 338 338 339 339 338 337 338 338 338 338 337 337 337 339 336 334 334 334 335 336 336 335 335 334 333 333 332 332 334 331 330 329 328 328 327 326 326 327 328 328 329 330 331 330 330 331 332 332 332 332 332 333 333 334 340 341 342 343 343 341 340 341 340 339 338 337 336 335 334 333 333
336 337 339 340 340 340 341 340 338 338 337 338 337 337 336 337 340 341 338 340 338 336 335 336 337 337 338 338 338 335 334 334 333 334 334 334 334 333 331 331 332 332 333 330 328 327 327 326 326 325 327 328 329 329 329 329 330 331 330 331 332 332 332 332 332 332 332 334 337 341 342 342 342 341 341 341 340 338 337 336 337 335 335 333 333
335 336 338 338 339 339 339 338 337 337 336 336 335 335 336 338 338 336 336 339 334 333 334 336 336 337 337 337 338 334 333 333 332 332 331 332 332 331 330 330 331 331 331 329 328 327 326 326 326 326 326 327 328 329 329 329 329 330 331 331 332 331 332 332 332 332 332 333 335 341 341 342 342 341 340 339 337 335 335 337 337 337 335 333 333
336 336 337 337 338 339 338 337 337 336 335 335 334 333 334 334 335 336 337 337 332 333 336 335 335 336 336 336 337 335 333 332 331 330 332 331 331 332 330 331 332 331 329 328 328 327 327 327 326 326 327 327 329 330 329 329 329 330 331 331 331 332 332 332 332 332 332 334 335 339 340 341 340 340 339 337 335 334 334 339 338 337 335 334 333
337 335 336 336 337 337 337 337 336 336 334 333 332 332 333 333 335 336 336 333 334 335 335 335 335 336 336 336 336 336 333 332 331 331 331 330 330 331 331 329 329 328 328 328 328 328 327 326 326 326 326 327 328 329 330 329 329 330 331 331 331 332 332 332 332 333 333 333 334 335 340 341 341 341 340 340 337 335 334 337 339 337 336 335 335
335 335 336 336 335 336 336 336 335 334 334 332 332 331 332 333 334 335 334 333 334 334 334 334 336 334 336 335 335 335 334 332 331 330 329 328 328 329 329 328 328 328 328 328 328 328 329 329 328 327 327 327 327 328 329 329 328 329 330 330 331 331 331 331 332 332 333 332 332 333 335 338 341 341 341 342 341 336 334 336 338 338 336 336 336
335 336 335 335 334 334 334 335 335 333 332 332 331 330 331 333 333 334 333 333 333 333 332 331 332 333 334 336 334 334 334 331 330 331 331 327 328 328 328 328 329 330 328 328 329 329 329 328 327 328 327 327 328 327 329 329 328 329 330 330 331 331 331 332 332 332 332 331 332 333 333 334 336 339 340 341 340 340 339 339 336 336 337 337 336
334 335 335 334 335 335 335 334 334 332 331 330 331 331 331 332 333 333 333 332 331 331 332 332 334 333 334 336 334 334 332 331 331 330 329 328 327 329 330 330 331 330 329 328 328 327 327 327 327 328 329 326 326 326 327 327 328 329 330 330 330 330 331 331 331 331 331 331 331 332 333 333 333 333 334 338 338 337 337 337 336 336 336 336 335
332 334 334 335 335 334 334 333 334 331 332 330 330 330 331 332 331 332 331 331 331 331 331 333 334 333 335 335 334 334 332 332 331 330 329 329 328 329 331 332 331 330 328 327 328 326 326 326 326 325 325 326 326 327 327 327 328 327 328 329 329 329 330 330 331 331 331 330 331 330 331 332 333 332 332 334 336 336 337 335 336 337 334 335 335
332 334 335 335 334 334 334 333 333 330 330 330 329 330 330 330 331 333 330 331 331 330 330 332 332 333 334 333 334 333 331 331 330 329 328 328 327 329 331 332 331 329 327 327 327 325 325 326 326 326 325 325 326 325 326 327 327 326 326 327 326 329 328 329 329 330 329 329 329 329 330 331 333 335 333 331 333 336 336 336 335 335 334 333 334
332 333 333 333 332 333 333 332 331 330 329 330 329 328 328 329 330 330 330 330 330 330 329 329 331 333 332 332 332 333 330 329 329 328 327 326 327 329 331 331 330 327 326 325 325 325 326 325 325 327 326 325 326 326 326 326 326 327 326 326 326 327 327 327 327 328 328 328 328 328 328 332 335 333 330 329 329 332 336 337 336 336 335 334 333
332 333 334 332 331 333 332 331 331 330 329 328 328 328 328 329 328 328 331 329 328 328 329 330 330 331 331 330 331 332 330 329 328 327 326 327 328 329 330 330 329 326 325 325 325 324 324 326 324 325 327 327 326 326 325 326 327 326 326 326 326 326 326 327 329 330 327 327 327 327 327 328 329 328 329 328 328 329 331 332 332 333 333 334 335
331 333 333 332 332 332 332 332 330 330 329 328 329 329 328 327 326 327 327 327 327 326 328 329 329 330 330 330 331 332 332 329 328 328 327 331 329 330 330 329 328 326 325 324 324 325 324 324 325 325 327 328 327 326 326 327 326 326 325 326 327 326 327 328 326 326 327 328 332 329 327 327 328 329 329 329 330 330 330 328 327 327 330 330 331
331 332 332 332 331 331 331 331 330 330 330 329 329 329 329 328 328 329 328 329 328 330 327 328 330 330 331 331 330 329 332 332 329 328 328 329 329 329 329 329 328 326 324 324 324 324 324 324 325 326 326 327 328 327 326 325 325 325 324 325 326 326 326 326 326 326 326 327 327 326 326 328 329 330 329 330 330 329 328 327 326 325 324 324 325
331 332 331 331 331 330 330 329 330 330 329 328 328 328 327 327 328 328 327 328 329 329 330 329 330 331 332 332 333 331 331 334 332 330 329 332 329 329 328 328 328 326 325 324 324 323 324 325 325 326 326 325 325 325 325 326 323 320 321 321 321 324 327 326 326 326 325 325 325 325 326 328 329 330 330 331 330 330 328 326 325 323 321 321 319
329 330 330 330 330 331 330 329 330 330 329 329 329 329 328 328 328 328 326 328 330 330 329 329 329 330 331 332 333 331 330 333 332 330 329 329 327 328 328 328 328 325 324 324 324 327 325 325 325 324 323 325 323 325 325 325 319 318 318 316 319 320 322 320 322 324 325 325 324 325 326 327 328 329 330 330 330 327 326 324 323 321 319 317 317
329 329 330 330 330 330 330 330 329 329 329 330 329 328 327 327 329 327 327 327 329 331 330 328 330 329 329 330 332 331 331 332 331 331 329 327 326 327 327 328 327 327 325 325 326 324 324 325 325 325 323 324 324 325 324 322 320 319 319 317 313 313 316 316 316 317 322 323 325 326 326 327 327 328 329 329 329 328 325 321 319 318 317 316 316
328 328 329 329 329 329 329 329 329 329 329 330 328 327 328 325 325 326 325 326 326 328 327 328 328 329 331 332 331 331 332 332 331 330 328 327 326 326 328 328 327 327 326 325 325 324 323 324 324 325 325 322 321 322 324 321 321 319 315 313 313 311 310 311 312 314 319 321 324 324 326 326 326 327 328 328 327 324 317 316 315 315 315 314 314
326 327 328 328 329 328 329 329 328 328 329 329 327 327 327 324 324 324 326 325 325 324 326 325 328 329 329 330 330 330 331 331 330 329 328 327 327 327 327 328 328 326 327 326 325 324 324 324 325 325 325 324 319 317 321 322 322 321 318 313 312 312 308 312 311 312 315 319 323 325 325 325 325 326 327 326 322 317 315 314 313 312 312 311 311
326 327 328 329 329 328 329 328 328 327 328 327 325 326 326 324 324 324 322 318 319 320 319 324 326 329 329 326 327 329 330 329 328 326 328 327 327 327 328 328 328 327 326 326 326 325 324 324 324 326 324 325 324 320 320 322 321 321 320 320 317 313 312 312 311 308 315 316 319 321 322 323 324 325 326 323 317 315 316 313 312 311 311 310 310
326 328 328 328 329 328 328 328 327 327 327 325 325 325 322 323 323 323 322 321 321 316 317 321 326 323 324 325 325 326 327 328 327 325 325 326 326 327 328 328 328 326 327 325 325 325 325 325 324 324 324 324 324 322 321 321 321 322 320 320 322 318 317 313 308 309 310 313 314 316 319 323 324 324 322 319 316 314 313 312 310 309 309 309 309
327 328 328 328 327 327 327 326 326 325 324 322 323 324 322 321 320 320 321 320 320 319 319 319 319 322 321 322 323 323 324 324 324 324 323 325 325 324 326 327 327 326 326 326 326 326 326 326 325 324 324 325 324 322 320 322 322 321 320 318 318 317 315 313 315 315 312 310 311 316 318 320 320 319 317 315 313 312 311 311 309 308 308 308 308
327 327 328 328 327 326 325 324 323 322 320 321 321 321 322 321 321 321 320 318 319 319 320 321 320 320 319 318 320 319 319 320 321 322 322 323 327 324 324 325 326 327 328 325 325 326 327 325 324 323 323 323 323 323 323 322 321 319 317 316 315 314 313 314 312 313 311 310 310 313 313 318 318 314 313 312 311 311 311 311 311 308 310 308 308
328 328 328 327 325 323 322 322 321 321 320 320 320 319 320 321 320 320 319 317 318 316 318 317 316 316 317 314 314 316 316 317 318 319 321 323 325 324 323 324 324 326 327 325 325 325 325 325 324 324 323 322 322 323 323 322 320 320 321 318 314 312 313 313 311 312 312 313 312 312 315 315 313 312 313 311 308 307 306 307 307 306 306 307 308
327 327 326 326 324 321 320 321 319 319 319 318 318 317 318 320 321 320 319 316 315 316 316 315 314 315 316 313 313 313 314 315 316 316 317 317 320 324 322 322 323 328 326 325 325 325 325 325 323 323 323 322 321 322 321 320 321 321 320 320 316 315 313 312 311 312 312 310 310 310 311 312 314 312 310 310 309 306 305 306 306 305 306 307 307
Wind_Speed
9 13 11 15 15 19 21 20 20 20 19 19 19 18 17 16 18 20 19 19 20 20 21 23 22 22 22 21 20 20 20 20 20 20 19 18 18 19 19 19 19 18 18 19 19 20 20 20 20 20 20 20 20 18 19 20 18 18 17 16 16 16 16 17 17 16 14 14 17 17 16 16 15 16 16 17 17 18 18 18 14 10 6 11 18
14 11 11 11 17 19 21 21 21 20 20 20 19 19 18 18 17 17 19 20 20 21 21 21 21 21 20 20 21 21 20 20 20 20 19 19 18 18 18 18 19 20 19 20 21 21 20 20 20 20 20 21 20 19 20 19 19 17 16 16 15 15 16 16 15 16 15 13 13 17 18 16 16 16 16 17 17 17 16 16 16 9 6 16 17
12 12 10 12 18 19 20 21 20 20 19 20 20 20 19 19 18 18 18 17 17 17 18 18 20 21 21 21 20 20 20 20 20 20 19 19 19 19 18 18 18 20 21 20 20 20 20 20 20 21 21 19 19 18 18 19 18 17 17 16 15 15 15 15 14 13 12 13 14 13 12 14 16 15 16 16 16 16 16 15 15 12 11 16 15
14 11 10 14 19 19 21 21 20 19 19 19 20 20 20 19 19 19 18 18 17 17 17 17 18 20 20 20 20 20 20 20 20 20 19 18 18 19 18 18 19 20 21 20 20 19 19 19 19 20 19 19 18 17 17 18 17 16 17 16 15 15 14 14 13 13 13 13 13 10 5 6 9 16 15 15 15 16 15 15 15 15 16 17 17
13 11 10 10 11 17 20 20 19 18 18 19 19 20 20 20 18 19 18 18 17 18 18 16 17 19 19 20 20 20 20 20 19 20 19 19 19 19 18 18 19 20 21 20 19 19 19 18 19 18 17 17 17 17 16 17 17 18 18 16 16 14 14 13 13 13 12 12 12 7 6 6 6 13 14 15 15 14 14 15 15 14 14 15 16
12 11 10 10 10 13 20 19 19 18 18 18 19 19 19 18 18 17 17 17 18 16 17 15 17 17 18 18 19 19 19 19 20 20 19 18 18 18 19 19 19 19 21 20 19 19 18 18 18 18 17 17 16 15 15 15 15 14 13 14 14 14 13 12 12 12 11 11 9 5 5 5 5 6 13 13 13 13 12 13 14 12 13 14 15
13 10 10 10 9 12 19 19 19 18 18 18 18 18 18 18 19 18 17 16 16 16 16 16 17 17 17 17 18 19 18 18 19 18 18 18 17 17 18 19 19 18 19 20 19 18 18 17 18 17 16 15 15 15 14 12 12 10 9 11 14 14 13 12 12 11 11 7 5 5 5 5 5 4 12 11 12 12 13 12 12 14 15 14 13
10 9 9 9 8 14 18 18 18 18 18 17 18 17 17 17 17 17 17 17 16 15 17 16 15 17 16 17 18 18 18 17 17 18 18 17 17 16 17 19 18 17 19 19 18 17 16 17 16 16 16 15 15 14 12 11 11 9 9 11 14 14 14 12 11 10 9 5 5 5 5 6 6 5 11 13 13 12 11 11 15 12 13 13 13
10 10 10 9 10 19 17 17 18 19 18 17 18 18 17 16 16 16 17 16 15 14 15 16 16 16 16 16 16 16 18 18 17 17 16 17 16 16 16 17 17 15 14 14 15 15 15 15 15 15 15 15 14 12 11 9 8 8 8 10 12 15 14 13 12 9 5 5 6 5 6 6 6 5 10 12 12 13 14 12 11 13 13 12 12
11 10 9 8 10 18 18 17 18 19 18 18 17 18 17 16 16 16 15 15 15 15 16 16 17 16 17 14 14 16 16 14 15 16 14 12 13 16 16 17 17 16 14 15 15 15 14 15 14 14 14 14 13 11 9 8 7 7 8 11 13 15 14 14 12 7 4 4 5 6 5 6 4 5 12 13 12 12 11 11 9 9 10 12 13
11 9 7 8 12 17 17 17 17 19 19 18 17 17 16 16 16 15 15 15 14 14 15 15 15 16 15 15 15 14 14 13 13 13 13 15 15 16 16 17 17 16 15 15 14 14 14 14 14 14 14 13 12 10 9 9 8 9 11 14 16 15 14 13 9 4 4 5 5 5 6 8 4 4 14 14 14 14 12 11 11 10 10 11 12
10 8 6 7 14 15 16 16 17 18 19 17 17 17 16 16 16 14 15 15 13 14 12 12 13 14 14 15 15 15 15 14 14 14 15 16 17 17 16 16 15 15 16 15 14 14 15 15 15 14 13 12 11 10 10 10 10 12 15 17 16 15 15 13 6 4 4 5 5 5 7 6 6 9 14 14 14 13 13 13 14 14 12 12 12
10 8 7 7 9 14 15 16 16 17 17 17 17 17 17 16 16 15 14 13 12 12 12 11 11 11 12 13 14 14 15 15 15 15 15 16 16 17 16 15 14 14 15 16 16 15 16 16 15 14 13 12 11 11 10 11 12 13 15 16 16 15 14 13 5 5 4 5 5 6 6 4 5 13 13 13 12 14 13 13 13 13 13 13 13
10 9 8 7 7 15 15 15 16 16 16 16 16 16 16 15 15 14 13 12 12 11 11 11 11 11 11 12 12 12 13 13 14 14 15 16 16 16 15 13 13 13 14 15 16 16 16 16 15 14 13 12 11 10 10 10 13 14 14 16 15 15 15 10 7 4 4 4 4 5 4 3 5 11 13 13 12 12 11 11 12 12 12 12 11
12 10 8 7 8 9 17 15 15 15 15 15 15 15 15 14 14 13 13 13 12 12 11 11 12 12 12 13 12 12 12 12 13 14 15 15 15 15 14 13 13 12 13 14 15 16 15 14 14 13 13 12 11 10 9 9 12 14 14 14 14 14 13 6 5 4 4 3 4 5 5 4 9 10 12 12 11 12 12 12 11 12 12 11 11
11 11 9 7 7 9 9 15 15 14 15 15 14 15 14 14 14 13 13 13 13 13 12 12 12 13 13 12 12 11 11 12 12 13 13 14 14 13 13 12 12 13 13 13 13 15 14 14 13 13 13 12 12 11 9 9 10 13 13 12 13 13 13 7 5 5 4 4 4 5 5 5 10 10 10 11 10 11 11 12 12 11 11 11 11
10 10 10 9 8 7 8 9 11 17 15 15 16 15 14 14 14 13 13 13 13 13 12 13 12 13 12 12 12 11 11 12 12 12 13 13 12 13 13 11 11 12 13 13 13 12 13 13 14 14 13 13 12 12 10 9 9 13 12 12 12 13 12 9 5 5 4 4 3 3 4 2 8 11 11 12 12 11 11 11 12 12 11 11 11
10 10 10 9 7 7 8 8 9 9 9 13 15 15 14 14 13 13 13 13 13 12 13 12 12 13 11 11 12 12 12 12 12 12 13 11 12 12 12 11 10 11 12 12 11 11 12 12 13 13 13 12 12 12 11 9 10 12 12 12 12 13 12 9 5 5 4 4 3 3 4 6 9 10 10 10 10 10 10 10 11 11 11 11 11
9 10 9 9 8 7 7 7 7 7 8 7 8 11 14 14 13 13 13 13 12 12 12 11 11 12 12 11 12 13 13 13 13 13 12 13 11 11 11 11 9 10 11 11 10 10 11 12 13 13 13 12 11 10 10 9 10 12 12 12 13 12 12 7 5 5 5 4 3 4 4 8 8 10 10 10 10 9 9 10 11 10 10 11 11
9 9 9 8 8 7 6 6 7 7 6 7 8 8 12 13 15 13 13 12 12 12 12 11 11 11 12 12 12 10 11 10 14 11 12 13 11 7 11 10 9 8 9 10 10 9 10 11 12 12 12 11 10 9 9 9 10 13 12 12 12 12 6 5 6 5 5 4 3 4 7 10 10 9 9 9 9 9 10 10 10 10 10 10 10
6 8 8 8 9 8 8 6 7 7 7 7 7 8 9 14 12 13 12 13 12 12 11 12 11 11 9 11 8 5 4 5 7 6 11 7 8 9 11 10 9 8 8 9 9 9 9 10 11 12 12 10 8 8 9 9 10 13 12 12 11 6 5 5 5 4 4 4 4 4 9 8 10 10 9 9 9 9 9 9 10 9 9 10 11
7 8 8 8 9 9 10 9 7 8 7 6 6 6 7 9 7 7 6 8 9 10 8 6 7 4 10 7 3 3 4 5 5 8 5 7 8 11 10 9 8 8 7 7 8 8 8 8 10 11 10 8 7 4 5 7 10 12 12 12 6 5 5 5 5 4 4 3 4 5 10 8 9 9 9 9 9 9 9 9 9 10 10 11 11
9 8 8 10 9 9 10 9 8 8 7 6 6 6 6 6 7 7 6 7 7 6 4 6 4 5 5 5 5 3 3 4 5 6 6 9 8 11 10 8 9 8 6 6 6 7 7 7 8 10 9 8 5 4 4 5 6 12 10 7 5 5 5 5 5 4 3 3 3 7 8 8 9 8 8 9 9 9 9 9 9 10 10 11 11
10 9 10 8 9 8 9 9 9 8 6 5 5 6 5 6 5 5 6 5 5 4 5 5 6 6 6 5 4 4 3 4 9 13 10 6 6 9 10 10 9 8 7 4 6 6 7 8 8 7 5 3 4 4 5 5 5 5 5 5 4 5 5 5 4 4 4 3 2 8 6 6 8 7 8 9 9 9 9 9 10 10 10 10 10
12 9 8 9 9 10 10 9 8 7 7 6 6 5 5 5 5 5 5 5 5 5 4 5 5 6 6 5 5 4 3 4 5 4 5 5 4 4 4 4 4 4 5 4 3 3 3 3 3 4 3 3 4 5 5 5 5 5 5 5 5 5 5 4 3 3 3 3 3 5 5 5 6 6 9 9 10 10 10 10 10 10 10 9 10
11 12 12 11 12 12 12 10 10 9 8 7 6 7 7 5 6 6 6 5 5 5 4 4 5 4 5 5 5 5 5 5 5 5 5 5 4 4 4 4 4 3 3 3 3 2 2 3 4 5 4 3 4 4 4 6 6 5 5 5 5 5 4 3 3 3 2 2 1 5 3 6 2 9 7 9 10 11 10 10 10 10 9 9 9
8 6 8 7 10 12 11 10 10 9 9 8 7 6 6 5 5 6 6 5 5 5 5 4 5 4 4 5 5 5 5 5 5 5 5 4 4 4 4 4 4 3 2 3 4 3 4 4 5 5 4 4 5 4 5 5 6 6 5 5 5 5 4 3 3 3 3 3 3 6 6 5 8 10 7 8 10 10 10 10 9 9 8 9 8
6 7 6 5 8 10 10 11 10 10 9 9 8 7 6 7 6 7 6 6 6 5 4 4 5 5 4 4 4 4 5 5 5 5 4 4 4 4 4 4 3 3 2 3 4 3 4 4 4 4 5 4 5 5 5 5 6 6 6 6 5 4 3 3 3 3 3 3 4 7 8 9 9 9 7 8 8 8 8 9 9 9 8 8 9
8 7 5 4 8 8 8 9 9 10 8 8 8 7 7 7 6 6 6 7 5 4 3 4 4 4 4 4 4 5 4 5 5 4 4 4 4 4 3 3 3 2 2 3 2 4 4 4 4 4 4 5 5 6 5 5 5 5 6 6 5 4 4 3 4 4 3 3 4 7 9 8 8 8 7 8 7 6 5 8 8 9 9 8 8
8 10 8 4 6 6 8 8 8 8 7 7 6 7 8 8 7 6 5 6 6 2 2 3 3 4 4 4 4 4 4 5 4 4 5 4 4 4 4 3 2 1 2 3 1 3 4 4 4 5 5 5 5 4 5 6 5 5 5 5 5 4 3 4 5 4 3 4 4 5 9 8 6 6 6 7 6 6 6 10 7 8 9 9 8
8 9 9 4 5 6 6 7 7 6 6 7 7 7 6 7 6 6 6 6 7 3 2 3 4 4 4 4 4 4 5 4 4 4 4 5 4 3 3 2 2 1 1 2 0 2 3 4 4 5 5 5 5 4 5 6 5 5 5 6 5 4 4 5 5 4 4 3 4 4 6 8 7 6 5 5 5 5 6 7 8 8 8 8 8
8 7 7 6 5 6 7 8 7 6 6 7 7 7 7 8 7 6 6 7 6 3 1 1 4 4 2 3 4 5 4 4 4 4 5 5 4 3 2 2 2 1 1 2 2 2 4 4 5 5 5 5 5 5 4 6 6 5 5 6 4 4 5 5 5 4 4 4 4 4 5 6 9 10 11 10 5 4 5 7 7 7 7 7 7
4 5 7 9 7 7 7 8 7 7 7 7 5 4 5 7 7 6 6 7 5 4 4 5 4 3 2 4 4 5 4 5 4 5 5 5 4 3 2 2 2 2 2 3 4 3 4 5 5 5 6 5 6 5 5 5 6 6 6 5 4 5 6 5 4 4 4 4 4 4 5 5 5 10 12 11 13 10 11 11 6 5 5 6 6
7 5 8 10 7 6 6 6 7 7 6 7 8 7 4 5 5 6 6 6 5 5 5 6 6 3 3 3 3 3 4 4 5 4 4 4 4 3 3 2 2 2 2 3 4 3 4 5 5 5 5 5 5 4 5 6 5 5 5 5 5 6 5 6 4 4 3 4 4 4 4 4 5 5 6 11 12 11 10 10 8 9 8 11 7
6 7 9 9 9 7 6 6 8 6 7 6 6 6 5 6 6 6 5 5 4 4 4 4 6 5 2 3 3 4 4 4 3 4 4 4 4 4 3 2 2 2 2 2 4 3 4 5 4 6 5 5 5 3 4 6 7 6 4 3 4 7 5 6 5 4 4 3 4 4 5 5 5 5 5 5 8 9 8 7 8 11 10 8 3
8 9 8 8 8 8 8 7 7 7 5 5 4 6 5 5 6 6 5 5 5 4 4 4 4 3 3 3 3 3 4 4 4 4 4 4 4 4 3 2 3 3 3 3 4 4 4 5 4 5 7 4 5 4 4 6 5 7 6 5 3 5 5 5 5 3 3 4 4 4 4 5 5 6 6 5 5 6 9 10 10 12 10 5 1
8 9 8 7 7 9 9 8 9 7 7 6 6 5 5 6 6 6 6 6 5 5 4 4 4 3 3 3 3 4 4 4 4 4 4 4 4 4 4 4 4 4 4 4 4 3 5 5 4 3 4 5 5 5 5 6 6 5 4 4 2 4 5 4 4 3 3 4 3 3 4 5 6 7 5 5 5 5 9 13 13 12 10 5 3
7 7 8 8 8 8 8 8 7 6 6 6 6 5 5 5 5 5 5 5 4 4 4 4 3 3 3 3 3 4 4 4 4 4 4 4 4 4 4 4 4 4 4 4 3 3 4 5 5 4 4 5 5 6 7 6 6 5 5 5 5 5 4 3 3 4 3 3 4 5 4 5 6 5 5 5 5 5 5 8 11 11 10 8 8
6 7 7 7 7 7 7 9 8 7 6 6 6 5 5 5 4 5 5 4 4 3 4 4 3 3 3 3 3 4 4 4 4 3 4 4 4 4 4 4 4 4 5 4 4 4 4 4 6 6 5 3 5 5 6 7 6 6 5 5 5 5 4 3 3 3 3 3 4 5 5 6 6 5 5 6 5 5 5 5 5 4 6 11 10
6 6 7 8 8 7 7 7 8 7 7 7 5 5 5 5 5 4 5 4 3 4 3 3 3 3 3 3 3 3 4 4 3 3 3 4 4 4 4 4 4 5 5 5 4 4 5 6 6 8 8 5 4 5 6 7 7 7 7 5 5 4 4 3 4 4 3 4 4 4 6 6 6 5 5 6 6 6 5 5 5 5 4 7 11
7 7 7 8 9 8 8 8 7 7 6 7 6 6 6 6 4 5 5 4 4 3 3 2 2 3 4 4 4 4 4 5 4 4 3 4 3 4 4 4 4 4 5 5 4 4 4 5 6 5 8 7 4 5 5 7 8 6 5 5 4 3 4 5 5 5 4 4 4 6 6 7 7 6 5 4 6 5 5 4 4 4 4 3 5
10 8 8 9 9 8 8 7 7 8 7 7 7 7 6 6 5 5 4 5 5 5 3 2 3 4 4 4 5 4 4 5 5 4 3 3 4 4 5 5 4 4 4 4 4 4 5 6 6 6 3 6 4 4 6 7 3 4 6 4 4 5 5 6 7 6 5 5 5 6 6 6 6 6 6 6 6 6 5 4 4 5 4 4 4
8 8 6 8 9 8 7 7 7 8 7 8 8 7 5 4 4 4 5 4 3 3 3 3 4 4 4 4 3 4 3 4 4 5 5 4 4 4 5 4 4 5 5 5 5 5 5 6 6 7 6 3 4 2 1 3 4 3 3 6 3 4 4 5 5 7 5 5 6 7 6 6 6 6 5 5 6 4 4 4 4 4 4 4 4
6 7 7 8 7 7 8 7 7 7 7 7 6 4 5 5 6 6 5 4 4 3 3 3 3 4 3 3 4 4 4 4 5 5 4 5 5 5 5 6 5 5 6 6 5 5 5 5 5 6 8 8 3 1 2 1 4 7 3 2 3 4 5 4 6 5 4 6 7 6 6 6 6 6 5 6 6 5 4 4 4 4 4 4 4
7 8 8 7 6 8 8 8 7 7 6 7 6 6 7 7 6 6 6 6 5 4 4 3 3 4 4 4 4 5 5 5 5 5 4 5 4 4 5 5 6 5 5 6 6 6 5 5 6 6 8 9 6 3 2 1 4 2 6 5 3 1 2 4 5 5 5 6 7 6 6 7 6 5 5 5 5 4 3 4 4 4 4 4 4
7 7 7 6 6 7 8 7 6 6 7 7 7 7 7 8 7 7 6 4 5 5 5 5 4 5 4 3 3 3 4 4 3 3 4 4 4 4 4 5 5 5 5 6 6 5 5 6 6 6 6 3 7 6 3 2 1 2 1 1 4 5 7 4 3 3 4 5 4 6 6 7 6 6 5 4 4 3 3 4 4 4 4 4 4
6 7 6 6 6 6 7 7 7 6 6 6 6 6 6 6 6 7 6 6 7 2 1 2 5 4 4 5 4 3 3 4 3 3 3 3 4 4 5 5 5 5 4 5 6 6 6 5 4 5 4 4 5 6 7 5 2 1 1 1 2 2 8 8 3 6 5 3 5 4 6 7 6 6 5 4 4 3 4 3 4 4 4 4 4
7 7 6 6 7 7 7 8 6 6 6 6 6 6 7 6 6 5 5 5 5 5 3 4 3 4 5 4 4 3 3 3 3 3 3 3 4 4 4 4 5 4 5 5 5 5 5 4 4 3 5 5 5 7 5 6 7 3 2 3 5 6 5 5 6 7 7 7 3 4 6 6 6 5 4 4 4 4 4 4 4 4 4 4 4
7 7 6 6 5 5 6 6 7 6 6 6 7 6 7 7 6 6 5 2 4 4 4 3 4 4 5 3 4 3 3 2 2 3 3 3 3 4 4 4 5 5 5 5 4 5 7 7 6 5 6 5 4 5 6 7 4 3 3 5 6 5 5 5 5 5 5 7 4 4 3 4 6 5 4 3 4 4 3 4 4 4 4 4 4
7 7 6 6 5 5 6 7 7 6 6 6 6 5 5 6 6 5 6 4 4 4 4 4 3 3 4 3 3 3 3 3 3 2 3 3 4 4 4 5 4 5 4 5 5 5 5 6 7 7 6 6 4 5 6 4 4 6 4 4 4 3 4 3 4 5 6 4 8 8 6 8 5 2 4 5 5 4 3 4 4 4 4 3 3
6 7 6 6 6 5 5 6 5 5 5 6 6 6 5 5 6 6 6 6 4 5 5 3 3 3 4 2 3 2 2 2 2 2 2 2 3 4 4 4 4 4 5 5 6 6 6 6 5 5 6 7 5 5 4 6 5 6 6 6 6 8 7 5 7 4 6 5 7 6 4 3 5 5 3 3 3 3 3 4 4 3 3 3 3
Wind_Direction
151 132 128 130 130 126 122 119 118 117 117 117 116 117 115 112 114 115 113 110 114 116 118 120 120 122 124 126 127 125 122 122 123 121 122 123 123 124 124 122 121 120 119 118 116 113 114 117 114 110 108 104 106 106 99 96 92 91 91 89 84 82 79 76 83 91 81 83 88 85 88 87 84 86 86 82 78 77 74 74 71 70 74 76 73
149 133 127 132 131 126 124 121 120 119 117 117 117 118 116 115 112 110 112 114 116 117 118 120 122 123 124 125 125 125 124 124 123 122 121 121 119 119 117 121 120 116 118 120 119 118 116 112 111 109 106 108 108 105 102 98 98 98 95 90 86 85 84 85 81 85 91 81 66 85 91 88 84 85 84 82 80 76 75 75 72 70 83 67 71
129 125 126 132 131 127 125 122 121 119 118 117 117 118 117 117 117 115 111 109 110 112 115 117 121 124 125 125 125 126 125 125 123 120 120 122 123 122 120 118 118 119 118 118 118 116 114 116 115 114 111 110 109 105 102 103 101 99 97 94 92 88 86 84 83 80 69 57 50 38 41 86 95 87 84 80 79 74 73 72 71 78 72 81 84
129 125 127 131 130 127 126 123 121 120 118 117 117 116 116 117 118 117 116 117 116 116 117 118 122 124 124 126 127 128 129 128 125 124 123 122 120 119 121 124 124 120 118 120 120 120 121 119 116 115 114 114 112 109 108 108 106 103 99 95 92 91 89 89 86 80 65 58 50 40 38 33 72 86 86 86 83 78 72 70 66 66 64 68 70
126 128 127 125 128 127 125 123 121 118 118 117 115 114 116 117 117 118 118 119 117 121 121 121 122 125 127 129 129 129 130 131 131 128 125 124 122 122 122 122 122 123 123 121 121 120 118 115 112 113 116 115 114 114 114 114 113 107 97 96 97 96 91 90 92 79 63 59 53 43 31 27 45 86 90 84 81 77 74 72 65 65 66 66 64
131 129 125 123 124 127 126 122 120 120 118 116 115 115 116 115 116 118 118 119 120 117 119 121 126 128 128 129 129 130 129 127 126 125 124 125 124 124 121 122 122 121 122 124 124 122 119 117 116 116 114 111 111 112 116 116 119 114 95 87 96 99 98 91 85 69 64 59 56 52 38 36 48 82 92 90 84 85 86 82 77 80 72 64 62
129 125 122 122 124 128 126 123 120 121 119 118 117 116 115 115 121 122 121 120 120 123 124 126 127 129 129 129 128 126 125 126 125 125 125 126 127 126 124 122 120 121 124 125 124 121 119 117 118 117 114 113 112 112 114 119 119 112 103 94 90 99 101 94 81 71 65 55 57 51 39 36 40 61 93 106 104 91 85 81 78 70 69 68 62
121 122 123 122 125 130 126 122 122 123 121 118 119 118 117 119 120 118 118 124 127 129 129 127 125 128 127 131 131 130 130 131 131 131 131 132 129 125 125 124 122 123 126 125 126 124 120 117 115 114 114 113 111 109 112 116 118 117 113 106 96 101 104 98 85 80 73 69 67 64 64 56 53 63 92 89 87 88 87 86 78 78 75 71 68
123 122 122 124 131 132 126 126 127 127 123 121 124 123 122 121 120 120 124 126 133 136 134 131 131 130 128 131 130 131 133 136 138 135 131 131 129 127 125 123 121 123 122 124 123 124 119 117 116 112 111 108 106 105 104 103 102 106 110 111 108 107 108 102 93 77 62 62 60 58 60 58 69 80 98 99 93 81 70 59 69 79 81 78 74
125 121 124 128 135 134 131 132 131 129 126 126 127 126 124 124 124 125 125 128 132 133 133 128 127 130 130 129 124 125 127 125 127 126 128 124 127 126 125 123 118 118 123 127 125 122 117 115 114 111 107 105 102 99 95 93 103 111 125 123 118 114 110 105 100 88 70 64 58 52 70 75 77 83 91 94 92 89 85 89 89 81 78 79 78
119 119 120 127 137 136 135 133 131 129 127 127 128 128 125 125 125 125 127 129 131 131 129 129 129 128 134 133 121 113 113 118 120 120 112 111 110 122 126 120 119 117 118 123 125 122 119 117 113 111 111 107 102 100 97 101 107 112 122 127 123 116 111 106 98 83 69 57 52 43 82 84 83 85 92 94 97 95 91 83 81 83 83 87 85
113 114 116 126 137 133 132 130 129 128 127 130 129 129 125 126 125 123 127 129 129 129 124 127 128 129 134 129 118 121 123 118 116 118 117 115 117 120 122 123 122 121 120 121 124 123 118 116 114 112 106 101 97 92 96 105 106 111 117 121 120 115 113 107 95 92 78 76 86 82 69 67 86 107 107 101 95 96 96 93 84 84 88 82 83
116 114 120 124 126 131 128 129 128 127 130 131 133 129 128 129 129 130 131 130 130 127 128 134 135 137 135 125 122 125 127 123 121 121 122 121 121 124 127 129 128 126 124 123 123 119 116 115 111 106 101 95 91 89 97 107 113 115 116 116 117 117 115 110 95 93 80 75 69 70 77 85 88 91 90 94 100 95 91 88 84 81 79 77 76
121 120 121 119 128 132 130 130 129 129 132 133 133 132 130 131 132 133 134 132 131 131 134 139 139 141 138 129 125 124 124 123 121 123 126 126 127 128 132 135 132 127 123 121 121 119 114 109 106 100 92 85 81 83 100 106 119 121 118 118 120 119 117 112 108 92 84 78 73 74 62 65 77 104 110 107 101 92 91 88 87 89 86 84 83
122 120 118 121 128 133 131 130 131 131 133 134 133 133 132 132 133 136 137 136 135 135 137 138 142 141 135 135 130 126 125 124 124 127 129 131 129 131 136 139 135 127 121 120 119 116 111 107 103 99 93 85 81 80 82 97 120 127 123 122 122 121 118 107 107 95 84 75 67 82 74 74 110 107 95 92 94 101 100 99 92 85 82 82 87
119 120 117 119 126 133 132 134 132 133 133 134 134 133 133 134 138 140 139 139 140 141 142 143 145 145 141 136 135 132 131 129 130 131 131 133 132 133 135 139 136 128 120 116 116 115 109 105 101 97 91 86 82 82 84 94 113 130 126 122 123 122 120 113 105 98 88 82 85 76 80 90 102 96 97 99 100 88 88 89 90 87 88 88 83
119 120 120 121 125 128 133 133 141 138 134 135 136 136 137 139 142 142 141 142 143 142 142 141 142 142 140 138 139 138 135 135 133 134 134 132 132 133 134 136 134 126 122 118 114 112 108 105 100 96 92 88 85 86 91 96 117 130 128 124 126 126 124 117 104 106 100 103 81 76 83 66 112 101 96 89 88 98 95 91 89 86 84 85 83
117 121 124 124 125 127 133 138 137 133 137 139 139 140 143 144 143 142 143 142 140 140 140 140 140 142 138 138 140 139 137 137 134 131 130 129 131 132 131 131 128 124 119 114 111 110 105 101 98 94 90 87 85 86 91 93 119 132 130 129 129 129 129 119 107 108 119 106 85 79 83 105 96 96 94 98 98 89 89 90 91 93 96 96 96
119 127 126 128 124 122 125 130 132 138 141 141 142 146 147 146 143 142 141 141 138 137 136 137 140 138 136 137 140 141 140 138 134 130 129 129 129 129 129 126 127 121 115 110 109 107 103 96 92 90 88 85 83 81 79 83 125 134 135 134 133 133 131 115 110 107 96 94 90 92 107 105 101 102 102 101 98 98 91 83 80 83 86 88 86
122 127 131 126 125 119 125 133 141 146 146 143 145 147 150 146 146 142 141 138 137 138 139 140 140 145 142 139 135 135 137 135 133 132 133 130 126 126 128 124 123 118 115 111 105 103 99 95 92 90 88 85 79 75 77 83 115 138 137 137 138 130 112 112 103 99 104 112 105 121 121 113 106 99 95 97 97 86 82 85 84 80 80 84 89
130 134 133 134 133 135 137 142 150 148 147 143 142 145 154 147 145 141 139 140 139 140 143 143 145 151 142 134 125 117 107 119 121 121 123 115 112 119 124 124 121 120 110 106 103 98 94 93 94 92 90 86 80 70 78 92 114 138 137 139 125 102 114 102 104 104 109 103 114 154 129 119 112 103 99 98 97 94 91 89 89 90 83 76 72
134 132 134 138 146 153 154 153 151 150 142 136 147 148 149 141 130 135 136 139 140 140 140 135 136 129 145 123 90 105 109 111 113 114 106 116 117 119 120 121 121 112 104 97 101 100 94 93 95 95 95 96 87 70 63 97 126 137 141 125 104 114 103 102 102 110 106 108 123 135 124 126 113 110 104 104 102 102 95 85 86 85 81 75 71
139 145 153 156 162 158 153 153 154 150 143 142 148 148 134 129 134 134 135 135 133 131 121 121 93 105 96 105 110 79 87 95 99 117 116 120 120 121 122 124 118 111 102 101 92 83 85 90 91 97 102 100 86 76 89 76 124 139 124 106 111 109 101 98 102 110 129 141 109 139 132 123 118 115 112 101 106 105 104 99 87 83 80 76 73
162 164 160 162 154 150 151 153 155 147 135 135 133 132 133 132 125 120 122 125 113 110 110 120 120 115 111 100 101 120 123 114 137 132 118 99 113 122 130 124 115 110 98 69 70 69 64 69 82 85 80 70 81 89 88 90 96 87 96 101 97 97 94 102 115 130 147 156 192 142 135 132 121 118 115 111 109 107 102 96 88 83 81 80 80
171 161 159 157 152 152 153 156 152 140 138 138 135 131 122 113 104 109 111 112 115 114 115 115 118 113 112 113 123 125 107 87 78 80 92 97 87 76 65 67 72 71 73 59 42 40 46 59 75 72 87 93 100 104 98 100 100 98 98 103 92 85 89 91 113 138 146 138 161 139 138 130 132 127 111 118 110 103 95 93 91 86 82 82 81
165 168 170 160 161 161 160 157 151 147 146 140 133 133 126 118 117 116 112 105 108 102 99 103 105 107 117 128 116 112 97 92 89 91 98 107 99 95 89 89 79 77 59 64 42 40 40 57 83 85 85 91 105 104 94 112 114 105 95 88 92 88 95 105 125 139 110 82 65 100 108 139 108 94 114 110 109 103 100 97 96 96 92 87 84
165 160 158 155 156 160 158 153 147 145 140 133 129 121 121 118 119 124 121 117 112 116 114 112 112 119 128 127 122 113 110 107 107 108 110 104 104 100 99 78 82 77 57 65 52 48 63 71 77 85 97 98 92 92 85 93 113 113 101 96 98 102 107 134 140 109 67 67 87 93 110 106 91 106 112 115 109 109 103 102 104 106 104 103 102
154 157 165 148 151 160 158 150 146 147 144 140 133 131 123 127 131 125 123 129 122 119 116 123 125 131 130 124 120 120 128 121 114 114 117 105 105 100 85 82 77 68 55 67 85 50 59 64 80 84 89 89 91 83 88 103 119 123 115 108 104 109 131 142 114 75 64 67 68 76 82 90 97 108 114 110 113 106 102 98 113 114 108 100 93
162 156 164 155 152 155 154 144 143 144 140 138 137 131 134 130 123 129 133 128 111 113 116 118 131 129 116 122 126 125 113 115 120 122 112 106 107 89 93 88 79 73 77 61 96 105 78 86 87 90 90 91 90 96 100 95 117 123 124 115 110 122 141 111 82 75 68 65 62 73 77 85 101 115 122 113 94 98 110 101 109 114 109 104 99
172 149 169 157 144 145 146 141 141 143 140 138 137 137 136 127 129 132 125 103 62 8 142 119 113 108 114 120 118 120 119 127 125 128 123 107 92 86 81 84 106 100 109 113 34 117 126 103 89 83 89 90 90 102 108 108 107 109 107 110 112 132 124 98 79 71 65 54 53 62 77 80 95 115 104 87 85 63 86 118 115 114 110 111 109
154 145 164 144 114 128 136 138 137 144 146 140 143 138 128 123 127 119 111 115 134 189 220 140 117 119 120 128 128 126 122 128 133 126 103 100 91 93 85 83 108 124 150 118 95 119 86 84 88 92 90 92 81 85 107 111 107 98 100 118 134 129 102 81 82 89 79 63 60 60 58 73 86 79 70 95 87 68 71 114 124 122 116 116 117
159 148 140 127 130 139 139 144 148 150 149 143 142 138 133 132 132 130 135 135 146 169 126 62 94 45 101 131 130 124 125 129 127 108 104 102 101 100 120 121 135 144 146 130 113 65 85 82 81 84 84 87 88 78 80 110 106 100 112 123 139 124 100 92 99 100 85 66 67 56 56 56 65 72 67 55 63 90 79 117 132 129 126 125 126
150 133 130 138 152 149 150 152 151 159 152 141 118 97 131 129 135 136 139 143 146 147 122 85 65 147 249 143 140 135 133 135 121 119 116 115 115 123 137 153 153 150 121 117 111 81 83 84 76 85 86 87 91 87 90 92 108 113 120 131 129 121 97 95 85 70 75 72 65 66 61 58 57 59 55 54 55 48 55 42 54 111 126 134 131
145 144 138 153 160 162 156 149 156 157 145 133 149 144 146 133 130 125 134 135 136 141 139 148 139 198 220 109 122 117 112 109 123 102 105 113 126 143 151 148 147 134 119 114 102 89 90 93 101 91 90 97 97 108 118 106 102 113 124 132 118 92 87 80 58 86 78 77 76 72 68 58 61 59 58 58 65 59 53 64 60 66 74 57 46
131 150 158 160 163 160 152 146 165 150 143 146 150 129 154 143 132 127 130 129 131 133 127 136 141 185 143 119 128 128 121 117 114 126 123 133 148 151 155 144 132 122 105 86 111 73 91 99 110 102 88 91 92 80 98 108 114 115 104 83 108 106 102 117 108 95 91 86 76 75 72 71 68 67 65 67 66 72 73 75 72 79 68 54 42
153 163 162 154 155 156 154 152 163 152 137 146 131 135 145 137 135 133 126 131 134 131 140 151 127 121 120 128 137 121 115 114 114 123 137 154 146 139 152 148 134 126 117 98 97 107 102 98 76 117 117 94 106 87 68 91 93 98 96 108 356 91 107 98 102 102 93 81 77 77 73 77 75 71 74 68 64 65 85 82 83 88 102 116 45
164 165 165 155 140 156 157 155 167 159 139 132 126 128 133 138 136 128 133 136 144 136 136 119 114 129 123 147 134 119 115 118 126 136 148 159 137 138 160 152 134 124 106 92 92 118 126 110 88 70 109 131 124 119 89 90 95 92 110 98 94 74 85 94 105 110 84 81 71 62 62 62 67 69 69 68 67 68 73 72 76 77 92 110 129
172 168 162 161 153 157 156 159 167 150 134 132 134 132 128 122 117 122 130 132 130 125 122 117 118 128 137 149 131 119 126 133 142 154 149 151 138 141 156 145 129 110 107 101 110 111 111 122 106 75 107 128 137 130 107 101 100 94 83 78 44 63 67 71 87 83 75 73 64 61 62 64 66 63 65 69 72 72 66 57 65 72 72 65 54
175 170 158 157 152 157 157 165 163 148 128 121 123 115 111 95 93 108 110 112 102 95 115 118 134 137 152 134 122 126 136 138 148 156 145 145 127 139 146 137 132 123 114 106 113 109 103 98 113 102 73 77 130 109 110 106 98 88 73 53 65 67 69 68 74 73 70 78 91 81 72 66 71 69 69 70 71 64 57 47 45 39 49 56 54
176 171 157 155 157 158 164 157 157 148 132 126 128 127 124 131 132 119 113 125 119 121 109 137 146 137 136 129 139 148 143 140 140 145 136 144 149 150 141 142 133 125 122 123 122 136 136 116 111 115 111 96 76 97 102 103 86 79 75 51 49 87 101 102 80 78 77 77 87 82 79 79 78 76 69 69 68 61 56 50 54 38 28 36 40
169 173 159 162 164 164 165 157 146 143 141 141 147 145 145 137 140 154 148 135 136 129 134 143 140 146 148 150 156 158 151 148 146 139 126 156 148 146 143 143 128 126 130 138 141 136 130 122 114 108 123 119 94 96 103 105 104 78 73 80 60 61 94 98 81 68 65 68 78 77 80 79 76 79 84 87 82 72 60 50 54 49 27 20 23
172 176 167 160 163 160 165 147 139 143 149 155 158 163 168 167 153 155 132 140 148 150 147 155 176 166 159 161 165 165 151 151 155 139 141 166 151 157 150 149 138 113 112 120 130 134 127 125 127 95 27 118 112 135 138 114 53 141 133 102 64 64 69 69 65 51 60 68 75 81 80 81 85 87 89 87 87 86 66 46 39 39 34 28 27
165 174 158 152 155 158 154 147 143 146 155 163 164 167 158 134 132 130 132 109 75 107 133 172 174 166 157 161 141 132 147 157 154 154 173 192 155 150 145 145 136 135 128 133 134 137 147 146 148 133 118 33 99 68 63 37 132 122 94 100 71 74 360 36 43 39 37 66 70 72 78 85 90 88 82 87 93 86 75 55 45 37 32 32 31
157 159 163 163 156 155 149 151 151 152 161 165 158 132 126 113 101 116 98 105 138 119 95 114 124 124 133 145 145 170 173 170 163 161 163 167 163 156 148 155 150 145 147 148 148 150 146 143 132 136 132 129 122 129 324 228 169 143 94 75 167 119 94 39 58 27 20 55 68 72 86 90 87 87 83 85 83 73 68 61 52 40 35 34 32
163 162 169 164 157 152 151 157 159 163 162 154 143 136 120 100 102 95 98 83 76 91 100 78 124 143 128 135 139 155 162 165 164 160 158 164 157 151 160 157 153 147 152 155 157 165 165 156 154 150 160 149 148 111 318 115 184 332 144 123 69 74 197 169 118 44 358 51 54 72 82 88 88 82 78 74 72 66 66 61 52 46 38 36 39
164 169 173 164 157 153 153 153 151 155 157 145 145 139 137 134 132 131 130 117 132 136 155 159 159 159 150 115 95 132 143 145 147 146 151 146 155 159 157 158 155 152 163 161 149 143 156 163 180 164 158 175 145 135 131 34 59 47 29 203 168 170 159 187 92 97 31 49 52 66 72 79 85 91 91 79 78 65 51 60 48 47 38 37 36
162 159 165 163 158 154 155 155 154 147 141 138 141 131 122 130 144 150 151 156 150 207 182 135 148 109 111 116 107 97 115 130 124 126 144 146 139 154 164 164 156 158 153 147 156 168 169 170 156 153 137 123 139 141 155 164 115 46 24 321 74 103 145 139 121 113 105 3 25 42 62 76 83 83 74 68 56 47 38 49 50 48 42 34 37
151 152 154 151 161 162 159 156 147 142 139 138 134 136 134 140 134 140 149 149 152 159 153 126 95 111 96 106 105 89 93 116 126 137 146 148 142 146 147 148 152 148 150 176 167 161 148 122 140 151 142 171 165 137 169 182 169 186 14 37 70 86 74 58 129 151 134 133 95 63 66 68 65 54 55 48 37 32 34 37 51 48 43 36 35
153 155 155 155 149 153 151 144 143 140 139 142 138 143 145 149 146 143 130 112 126 124 110 84 89 86 95 80 94 83 73 73 108 137 145 156 162 155 154 150 152 156 167 154 157 166 166 155 162 163 169 163 173 166 160 189 162 105 62 39 68 73 61 66 93 95 138 126 118 133 122 80 68 42 28 34 34 29 30 39 55 52 44 36 30
146 146 138 136 144 156 154 147 145 142 143 143 141 139 138 137 139 145 134 116 101 82 88 89 81 92 107 93 98 95 91 100 92 122 146 163 156 148 152 163 165 160 160 160 157 166 173 172 178 173 167 164 169 166 182 122 109 130 148 166 119 101 69 74 62 101 59 58 148 157 154 141 125 16 8 16 21 19 27 38 49 45 44 36 27
137 141 138 145 154 160 154 142 141 136 144 147 142 139 138 145 147 143 136 130 117 114 100 83 89 88 106 76 68 60 50 64 79 77 107 131 156 159 155 164 168 168 160 160 165 173 180 180 167 156 164 164 171 168 130 145 152 132 156 172 163 164 172 173 172 156 133 118 107 129 115 60 123 116 21 9 32 21 35 38 47 41 43 49 37